• In Czech Republic
  • List of Countries
  • For 7 days
  • Water Temperature
  • Satellite Maps
  • Weather Map
  • Weather Widgets
  • user-avatar
    Login

    Hourly Weather Mazıdağı

    Today, 16 December, Saturday

    Time Temperature Precipitation Wind Pressure Humidity
    00:00 +6°C° 0 mm 1 mps 669 mmHg 42%
    01:00 +6°C° 0 mm 1 mps 669 mmHg 42%
    02:00 +6°C° 0 mm 1 mps 669 mmHg 42%
    03:00 +5°C° 0 mm 1 mps 669 mmHg 42%
    04:00 +5°C° 0 mm 1 mps 669 mmHg 42%
    05:00 +5°C° 0 mm 1 mps 669 mmHg 43%
    06:00 +5°C° 0 mm 1 mps 669 mmHg 43%
    07:00 +5°C° 0 mm 1 mps 670 mmHg 42%
    08:00 +6°C° 0 mm 1 mps 670 mmHg 42%
    09:00 +7°C° 0 mm 1 mps 670 mmHg 41%
    10:00 +8°C° 0 mm 1 mps 671 mmHg 37%
    11:00 +10°C° 0 mm 1 mps 671 mmHg 34%
    12:00 +11°C° 0 mm 1 mps 671 mmHg 30%
    13:00 +11°C° 0 mm 1 mps 671 mmHg 30%
    14:00 +12°C° 0 mm 1 mps 671 mmHg 31%
    15:00 +12°C° 0 mm 1 mps 671 mmHg 31%
    16:00 +11°C° 0 mm 1 mps 671 mmHg 36%
    17:00 +10°C° 0 mm 1 mps 671 mmHg 41%
    18:00 +7°C° 0 mm 0 mps 670 mmHg 46%
    19:00 +7°C° 0 mm 0 mps 671 mmHg 48%
    20:00 +7°C° 0 mm 0 mps 671 mmHg 50%
    21:00 +6°C° 0 mm 0 mps 671 mmHg 52%
    22:00 +6°C° 0 mm 0 mps 671 mmHg 53%
    23:00 +6°C° 0 mm 0 mps 671 mmHg 55%

    Tomorrow, 17 December, Sunday

    Time Temperature Precipitation Wind Pressure Humidity
    00:00 +5°C° 0 mm 0 mps 671 mmHg 56%
    01:00 +5°C° 0 mm 0 mps 671 mmHg 58%
    02:00 +5°C° 0 mm 0 mps 671 mmHg 60%
    03:00 +5°C° 0 mm 0 mps 671 mmHg 61%
    04:00 +5°C° 0 mm 1 mps 671 mmHg 62%
    05:00 +5°C° 0 mm 1 mps 671 mmHg 63%
    06:00 +5°C° 0 mm 1 mps 671 mmHg 63%
    07:00 +6°C° 0 mm 1 mps 671 mmHg 61%
    08:00 +6°C° 0 mm 1 mps 671 mmHg 59%
    09:00 +7°C° 0 mm 1 mps 672 mmHg 57%
    10:00 +8°C° 0 mm 1 mps 672 mmHg 54%
    11:00 +9°C° 0 mm 1 mps 672 mmHg 51%
    12:00 +10°C° 0 mm 1 mps 672 mmHg 47%
    13:00 +11°C° 0 mm 1 mps 672 mmHg 48%
    14:00 +11°C° 0 mm 1 mps 672 mmHg 48%
    15:00 +11°C° 0 mm 1 mps 672 mmHg 49%
    16:00 +11°C° 0 mm 1 mps 671 mmHg 52%
    17:00 +10°C° 0 mm 1 mps 671 mmHg 55%
    18:00 +9°C° 0 mm 1 mps 671 mmHg 58%
    19:00 +8°C° 0 mm 1 mps 671 mmHg 58%
    20:00 +8°C° 0 mm 1 mps 671 mmHg 59%
    21:00 +6°C° 0 mm 0 mps 671 mmHg 60%
    22:00 +7°C° 0 mm 1 mps 672 mmHg 61%
    23:00 +7°C° 0 mm 1 mps 672 mmHg 61%

    Day after tomorrow, 18 December, Monday

    Time Temperature Precipitation Wind Pressure Humidity
    00:00 +7°C° 0 mm 1 mps 672 mmHg 62%
    01:00 +7°C° 0 mm 1 mps 672 mmHg 63%
    02:00 +6°C° 0 mm 1 mps 672 mmHg 64%
    03:00 +6°C° 0 mm 1 mps 671 mmHg 64%
    04:00 +6°C° 0 mm 1 mps 671 mmHg 65%
    05:00 +5°C° 0 mm 1 mps 671 mmHg 66%
    06:00 +5°C° 0 mm 1 mps 671 mmHg 66%
    07:00 +6°C° 0 mm 1 mps 671 mmHg 64%
    08:00 +7°C° 0 mm 1 mps 672 mmHg 62%
    09:00 +7°C° 0 mm 1 mps 672 mmHg 59%
    10:00 +9°C° 0 mm 1 mps 672 mmHg 54%
    11:00 +9°C° 0 mm 2 mps 672 mmHg 48%
    12:00 +10°C° 0 mm 2 mps 672 mmHg 42%
    13:00 +12°C° 0 mm 2 mps 672 mmHg 41%
    14:00 +12°C° 0 mm 2 mps 672 mmHg 40%
    15:00 +11°C° 0 mm 3 mps 672 mmHg 38%
    16:00 +10°C° 0 mm 2 mps 671 mmHg 41%
    17:00 +9°C° 0 mm 2 mps 671 mmHg 44%
    18:00 +8°C° 0 mm 2 mps 671 mmHg 47%
    19:00 +7°C° 0 mm 2 mps 671 mmHg 47%
    20:00 +7°C° 0 mm 2 mps 671 mmHg 48%
    21:00 +6°C° 0 mm 2 mps 671 mmHg 48%
    22:00 +6°C° 0 mm 2 mps 671 mmHg 48%
    23:00 +6°C° 0 mm 2 mps 671 mmHg 49%

    19 December, Tuesday

    Time Temperature Precipitation Wind Pressure Humidity
    00:00 +5°C° 0 mm 2 mps 671 mmHg 49%
    01:00 +5°C° 0 mm 2 mps 671 mmHg 49%
    02:00 +5°C° 0 mm 2 mps 671 mmHg 50%
    03:00 +5°C° 0 mm 2 mps 671 mmHg 50%
    04:00 +5°C° 0 mm 2 mps 671 mmHg 50%
    05:00 +5°C° 0 mm 2 mps 671 mmHg 50%
    06:00 +4°C° 0 mm 2 mps 671 mmHg 50%
    07:00 +5°C° 0 mm 2 mps 671 mmHg 49%
    08:00 +6°C° 0 mm 2 mps 672 mmHg 48%
    09:00 +5°C° 0 mm 3 mps 672 mmHg 47%
    10:00 +7°C° 0 mm 3 mps 672 mmHg 45%
    11:00 +8°C° 0 mm 3 mps 672 mmHg 43%
    12:00 +9°C° 0 mm 3 mps 672 mmHg 40%
    13:00 +9°C° 0.2 mm 3 mps 672 mmHg 42%
    14:00 +8°C° 0.2 mm 3 mps 672 mmHg 44%
    15:00 +8°C° 0.2 mm 3 mps 671 mmHg 45%
    16:00 +8°C° 0 mm 3 mps 671 mmHg 48%
    17:00 +7°C° 0 mm 3 mps 671 mmHg 50%
    18:00 +7°C° 0 mm 2 mps 671 mmHg 53%
    19:00 +6°C° 0 mm 2 mps 671 mmHg 53%
    20:00 +6°C° 0 mm 2 mps 672 mmHg 52%
    21:00 +6°C° 0 mm 2 mps 672 mmHg 52%
    22:00 +6°C° 0.2 mm 2 mps 672 mmHg 55%
    23:00 +6°C° 0.2 mm 2 mps 672 mmHg 58%

    20 December, Wednesday

    Time Temperature Precipitation Wind Pressure Humidity
    00:00 +5°C° 0.2 mm 2 mps 672 mmHg 61%
    01:00 +5°C° 0.8 mm 2 mps 672 mmHg 67%
    02:00 +4°C° 0.8 mm 3 mps 671 mmHg 73%
    03:00 +3°C° 0.8 mm 3 mps 671 mmHg 79%
    04:00 +3°C° 0.9 mm 3 mps 671 mmHg 81%
    05:00 +3°C° 0.9 mm 3 mps 671 mmHg 84%
    06:00 +3°C° 0.9 mm 3 mps 671 mmHg 86%
    07:00 +3°C° 1.9 mm 3 mps 671 mmHg 87%
    08:00 +4°C° 1.9 mm 2 mps 671 mmHg 88%
    09:00 +4°C° 1.9 mm 2 mps 671 mmHg 88%
    10:00 +3°C° 1 mm 3 mps 671 mmHg 87%
    11:00 +4°C° 1 mm 3 mps 671 mmHg 85%
    12:00 +4°C° 1 mm 3 mps 671 mmHg 84%
    13:00 +4°C° 0.5 mm 3 mps 671 mmHg 84%
    14:00 +5°C° 0.5 mm 3 mps 671 mmHg 84%
    15:00 +5°C° 0.5 mm 3 mps 670 mmHg 85%
    16:00 +5°C° 0.5 mm 3 mps 670 mmHg 87%
    17:00 +5°C° 0.5 mm 3 mps 671 mmHg 88%
    18:00 +5°C° 0.5 mm 3 mps 671 mmHg 90%
    19:00 +4°C° 0.3 mm 3 mps 671 mmHg 91%
    20:00 +4°C° 0.3 mm 4 mps 671 mmHg 91%
    21:00 +4°C° 0.3 mm 4 mps 671 mmHg 92%
    22:00 +5°C° 0.1 mm 4 mps 671 mmHg 91%
    23:00 +5°C° 0.1 mm 3 mps 671 mmHg 91%

    21 December, Thursday

    Time Temperature Precipitation Wind Pressure Humidity
    00:00 +5°C° 0.1 mm 3 mps 671 mmHg 91%
    01:00 +5°C° 0.2 mm 3 mps 671 mmHg 90%
    02:00 +5°C° 0.2 mm 3 mps 670 mmHg 90%
    03:00 +6°C° 0.2 mm 2 mps 670 mmHg 90%
    04:00 +6°C° 0.3 mm 2 mps 670 mmHg 89%
    05:00 +6°C° 0.3 mm 2 mps 669 mmHg 89%
    06:00 +6°C° 0.3 mm 2 mps 669 mmHg 88%
    07:00 +6°C° 0.3 mm 2 mps 669 mmHg 86%
    08:00 +6°C° 0.3 mm 2 mps 669 mmHg 84%
    09:00 +6°C° 0.3 mm 2 mps 669 mmHg 82%
    10:00 +7°C° 0.1 mm 3 mps 668 mmHg 77%
    11:00 +8°C° 0.1 mm 3 mps 668 mmHg 73%
    12:00 +9°C° 0.1 mm 3 mps 668 mmHg 69%
    13:00 +9°C° 0 mm 3 mps 668 mmHg 67%
    14:00 +10°C° 0 mm 3 mps 667 mmHg 66%
    15:00 +10°C° 0 mm 3 mps 667 mmHg 64%
    16:00 +9°C° 0 mm 3 mps 666 mmHg 67%
    17:00 +8°C° 0 mm 2 mps 666 mmHg 71%
    18:00 +8°C° 0 mm 2 mps 665 mmHg 74%
    19:00 +7°C° 0 mm 2 mps 665 mmHg 75%
    20:00 +7°C° 0 mm 2 mps 664 mmHg 75%
    21:00 +8°C° 0 mm 1 mps 664 mmHg 76%
    22:00 +7°C° 0 mm 2 mps 664 mmHg 77%
    23:00 +6°C° 0 mm 2 mps 663 mmHg 78%
    Show more